28 maja 2022

Czas Kod Pogoda Temp. Widoczność Sufit Wiatr METAR/SPECI
6:50 pm
V
59 °F 6¼ mi+ - 310° 310° 8 kt METAR EDDG 281650Z 31008KT 270V340 9999 FEW042 15/05 Q1018 NOSIG
6:20 pm
V
61 °F 6¼ mi+ - 290° 290° 12 kt METAR EDDG 281620Z 29012KT 260V360 9999 SCT042 16/06 Q1018 BECMG 30006KT
5:50 pm
V
59 °F 6¼ mi+ - 310° 310° 14 kt METAR EDDG 281550Z 31014KT 280V340 9999 VCSH FEW035CB SCT042 15/05 Q1018 BECMG 30006KT
5:20 pm
V
59 °F 6¼ mi+ - 320° 320° 13 kt METAR EDDG 281520Z 32013KT 280V350 9999 FEW042 15/04 Q1018 BECMG 30006KT
4:50 pm
V
59 °F 6¼ mi+ - 310° 310° 11 kt METAR EDDG 281450Z 31011KT 270V350 9999 FEW042 15/06 Q1018 BECMG 30006KT
4:20 pm
V
57 °F 6¼ mi+ - 320° 320° 16 kt METAR EDDG 281420Z 32016KT 280V360 9999 -SHRA FEW035CB SCT042 14/05 Q1019 BECMG 30008KT
3:50 pm
V
61 °F 6¼ mi+ - 320° 320° 10 - 20 kt METAR EDDG 281350Z 32010G20KT 280V360 9999 VCSH FEW025 FEW035CB SCT040 16/06 Q1019 NOSIG
3:20 pm
V
59 °F 6¼ mi+ - 290° 290° 13 kt METAR EDDG 281320Z 29013KT 270V330 9999 -SHRA FEW025 SCT035CB 15/05 Q1019 TEMPO 30015G25KT
2:50 pm
V
59 °F 6¼ mi+ - 300° 300° 13 kt METAR EDDG 281250Z 30013KT 250V340 9999 FEW030CB SCT040 15/05 Q1019 TEMPO 30015G25KT
2:20 pm
V
59 °F 6¼ mi+ - 290° 290° 12 kt METAR EDDG 281220Z 29012KT 260V340 9999 FEW030CB SCT038 15/06 Q1019 TEMPO 30015G25KT
1:50 pm
V
57 °F 6¼ mi+ - 270° 270° 9 kt METAR EDDG 281150Z 27009KT 250V310 9999 VCSH FEW030CB SCT038 14/08 Q1019 TEMPO 30015G25KT
1:20 pm
V
61 °F 6¼ mi+ 3.800 ft 290° 290° 16 kt METAR EDDG 281120Z 29016KT 260V330 9999 -SHRA SCT030CB BKN038 16/06 Q1019 NOSIG
12:50 pm
V
59 °F 6¼ mi+ - 310° 310° 10 kt METAR EDDG 281050Z 31010KT 230V350 9999 VCSH FEW030CB 15/07 Q1019 NOSIG
12:20 pm
V
55 °F 6¼ mi+ - 290° 290° 13 kt METAR EDDG 281020Z 29013KT 260V330 9999 FEW028CB SCT045 13/06 Q1020 NOSIG
11:50 am
V
54 °F 6¼ mi+ 4.500 ft 290° 290° 13 - 23 kt METAR EDDG 280950Z 29013G23KT 260V320 9999 -SHRA FEW020 FEW028CB BKN045 12/07 Q1020 NOSIG
11:20 am
V
54 °F 6¼ mi+ 4.500 ft 290° 290° 13 kt METAR EDDG 280920Z 29013KT 260V330 9999 -SHRA FEW018 SCT028CB BKN045 12/06 Q1020 NOSIG
10:50 am
V
57 °F 6¼ mi+ - 290° 290° 11 kt METAR EDDG 280850Z 29011KT 260V320 9999 SCT030 14/06 Q1020 NOSIG
10:20 am
V
55 °F 6¼ mi+ - 280° 280° 13 kt METAR EDDG 280820Z 28013KT 260V330 9999 SCT030 13/06 Q1020 NOSIG
9:50 am
V
55 °F 6¼ mi+ - 310° 310° 10 kt METAR EDDG 280750Z 31010KT 260V340 9999 SCT029 13/06 Q1020 NOSIG
9:20 am
M
54 °F 6¼ mi+ 2.700 ft 290° 290° 14 kt METAR EDDG 280720Z 29014KT 240V340 9999 BKN027 12/06 Q1020 NOSIG
8:50 am
V
55 °F 6¼ mi+ - 290° 290° 9 kt METAR EDDG 280650Z 29009KT 260V330 9999 FEW025 SCT048 13/07 Q1020 NOSIG
8:20 am
V
52 °F 6¼ mi+ 4.700 ft 300° 300° 11 kt METAR EDDG 280620Z 30011KT 260V340 9999 FEW025 BKN047 11/06 Q1020 NOSIG
7:50 am
V
50 °F 6¼ mi+ - 300° 300° 10 kt METAR EDDG 280550Z 30010KT 260V330 9999 FEW025 10/07 Q1020 NOSIG
7:20 am
V
50 °F 6¼ mi+ - 280° 280° 9 kt METAR EDDG 280520Z 28009KT 250V320 9999 FEW025 10/06 Q1019 NOSIG
6:50 am
V
50 °F 6¼ mi+ - 280° 280° 9 kt METAR EDDG 280450Z 28009KT 260V320 9999 FEW021 10/07 Q1019 NOSIG
6:20 am
V
48 °F 6¼ mi+ - 280° 280° 7 kt METAR EDDG 280420Z 28007KT 220V310 9999 FEW025 09/07 Q1019 NOSIG
5:50 am
V
48 °F 6¼ mi+ - 270° 270° 9 kt METAR EDDG 280350Z 27009KT 9999 FEW023 09/07 Q1019 NOSIG
5:20 am
V
48 °F 6¼ mi+ - 280° 280° 7 kt METAR EDDG 280320Z 28007KT 9999 FEW028 09/08 Q1019 NOSIG
4:50 am
V
48 °F 6¼ mi+ - 270° 270° 7 kt METAR EDDG 280250Z 27007KT 9999 FEW026 SCT038 09/08 Q1019 NOSIG
4:20 am
V
50 °F 6¼ mi+ 4.200 ft 280° 280° 9 kt METAR EDDG 280220Z 28009KT 9999 -SHRA FEW023 FEW026TCU BKN042 10/08 Q1019 NOSIG
3:50 am
V
52 °F 6¼ mi+ - 270° 270° 11 kt METAR EDDG 280150Z 27011KT 9999 -SHRA FEW023 SCT026TCU 11/07 Q1018 TEMPO SHRA
3:20 am
V
50 °F 6¼ mi+ - 260° 260° 10 kt METAR EDDG 280120Z 26010KT 9999 FEW028 SCT038 10/07 Q1019 NOSIG
2:50 am
V
50 °F 6¼ mi+ - 260° 260° 9 kt METAR EDDG 280050Z 26009KT 9999 FEW035 10/07 Q1019 NOSIG
2:20 am
V
50 °F 6¼ mi+ - 250° 250° 10 kt METAR EDDG 280020Z 25010KT 9999 FEW042 10/06 Q1019 NOSIG
1:50 am
V
52 °F 6¼ mi+ - 250° 250° 11 kt METAR EDDG 272350Z 25011KT 9999 FEW042 11/06 Q1019 NOSIG
1:20 am
V
52 °F 6¼ mi+ - 250° 250° 10 kt METAR EDDG 272320Z 25010KT 9999 FEW042 11/06 Q1019 NOSIG
12:50 am
V
52 °F 6¼ mi+ - 250° 250° 10 kt METAR EDDG 272250Z 25010KT 9999 FEW036 11/06 Q1020 NOSIG
12:20 am
V
52 °F 6¼ mi+ - 250° 250° 10 kt METAR EDDG 272220Z 25010KT 9999 FEW036 SCT045 11/06 Q1020 NOSIG

27 maja 2022

Czas Kod Pogoda Temp. Widoczność Sufit Wiatr METAR/SPECI
11:50 pm
V
52 °F 6¼ mi+ - 250° 250° 8 kt METAR EDDG 272150Z 25008KT 9999 FEW036 SCT042 11/06 Q1020 NOSIG
11:20 pm
V
52 °F 6¼ mi+ - 260° 260° 8 kt METAR EDDG 272120Z 26008KT 9999 FEW036 11/06 Q1020 NOSIG
10:50 pm
V
54 °F 6¼ mi+ - 270° 270° 11 kt METAR EDDG 272050Z 27011KT 9999 FEW036 12/06 Q1020 NOSIG
10:20 pm
V
54 °F 6¼ mi+ - 270° 270° 9 kt METAR EDDG 272020Z 27009KT 9999 FEW038 12/06 Q1020 NOSIG
9:50 pm
V
55 °F 6¼ mi+ - 280° 280° 12 kt METAR EDDG 271950Z 28012KT 9999 FEW034 13/06 Q1020 NOSIG
9:20 pm
V
55 °F 6¼ mi+ - 280° 280° 11 kt METAR EDDG 271920Z 28011KT 9999 FEW036 13/06 Q1020 NOSIG
8:50 pm
V
55 °F 6¼ mi+ - 280° 280° 14 kt METAR EDDG 271850Z 28014KT 250V350 9999 FEW036 13/05 Q1020 TEMPO 28009KT
8:20 pm
V
57 °F 6¼ mi+ - 290° 290° 14 - 24 kt METAR EDDG 271820Z 29014G24KT 260V330 9999 FEW036 14/05 Q1020 TEMPO 28015KT
7:50 pm
V
57 °F 6¼ mi+ - 280° 280° 13 kt METAR EDDG 271750Z 28013KT 9999 SCT041 14/06 Q1020 NOSIG
7:20 pm
V
59 °F 6¼ mi+ - 270° 270° 16 kt METAR EDDG 271720Z 27016KT 260V320 9999 SCT041 15/05 Q1020 NOSIG
6:50 pm
V
59 °F 6¼ mi+ - 290° 290° 15 - 29 kt METAR EDDG 271650Z 29015G29KT 9999 SCT044 15/05 Q1020 NOSIG
6:20 pm
V
59 °F 6¼ mi+ - 280° 280° 16 kt METAR EDDG 271620Z 28016KT 9999 FEW046 15/06 Q1020 TEMPO 30020G30KT
5:50 pm
V
61 °F 6¼ mi+ - 290° 290° 15 kt METAR EDDG 271550Z 29015KT 270V330 CAVOK 16/06 Q1020 TEMPO 30020G30KT
5:20 pm
V
63 °F 6¼ mi+ - 270° 270° 17 kt METAR EDDG 271520Z 27017KT 250V320 CAVOK 17/05 Q1019 TEMPO 30020G30KT
4:50 pm
V
63 °F 6¼ mi+ - 290° 290° 16 kt METAR EDDG 271450Z 29016KT 260V320 CAVOK 17/05 Q1019 TEMPO 30020G30KT
4:20 pm
V
63 °F 6¼ mi+ - 290° 290° 18 kt METAR EDDG 271420Z 29018KT 260V330 CAVOK 17/05 Q1019 TEMPO 30020G30KT
3:50 pm
V
63 °F 6¼ mi+ - 290° 290° 18 kt METAR EDDG 271350Z 29018KT CAVOK 17/05 Q1019 TEMPO 30020G30KT
3:20 pm
V
63 °F 6¼ mi+ - 290° 290° 14 kt METAR EDDG 271320Z 29014KT 260V320 CAVOK 17/05 Q1019 TEMPO 30020G30KT
2:50 pm
V
64 °F 6¼ mi+ - 280° 280° 16 kt METAR EDDG 271250Z 28016KT 240V310 CAVOK 18/05 Q1019 TEMPO 30020G30KT
2:20 pm
V
63 °F 6¼ mi+ - 270° 270° 19 kt METAR EDDG 271220Z 27019KT 250V310 CAVOK 17/05 Q1019 TEMPO 30020G30KT
1:50 pm
V
63 °F 6¼ mi+ - 280° 280° 17 - 27 kt METAR EDDG 271150Z 28017G27KT 250V320 CAVOK 17/05 Q1019 NOSIG
1:20 pm
V
63 °F 6¼ mi+ - 280° 280° 18 kt METAR EDDG 271120Z 28018KT 9999 SCT048 17/05 Q1019 TEMPO 30020G30KT
12:50 pm
V
64 °F 6¼ mi+ - 270° 270° 16 kt METAR EDDG 271050Z 27016KT 250V340 9999 SCT048 18/06 Q1019 TEMPO 30020G30KT
12:20 pm
V
61 °F 6¼ mi+ - 280° 280° 20 kt METAR EDDG 271020Z 28020KT 9999 SCT046 16/05 Q1019 TEMPO 30020G30KT
11:50 am
V
63 °F 6¼ mi+ - 270° 270° 21 kt METAR EDDG 270950Z 27021KT 250V310 9999 FEW044 17/06 Q1019 NOSIG
11:20 am
V
61 °F 6¼ mi+ - 290° 290° 16 - 26 kt METAR EDDG 270920Z 29016G26KT 9999 SCT044 16/06 Q1019 NOSIG
10:50 am
V
61 °F 6¼ mi+ - 290° 290° 17 kt METAR EDDG 270850Z 29017KT 260V330 9999 SCT040 16/08 Q1018 NOSIG
10:20 am
V
61 °F 6¼ mi+ - 280° 280° 20 kt METAR EDDG 270820Z 28020KT 9999 SCT040 16/06 Q1018 NOSIG
9:50 am
V
61 °F 6¼ mi+ - 270° 270° 18 - 32 kt METAR EDDG 270750Z 27018G32KT 240V300 9999 FEW030 16/07 Q1018 NOSIG
9:20 am
V
59 °F 6¼ mi+ - 270° 270° 15 kt METAR EDDG 270720Z 27015KT 9999 SCT021 15/09 Q1018 NOSIG
8:50 am
V
59 °F 6¼ mi+ - 260° 260° 13 kt METAR EDDG 270650Z 26013KT 9999 FEW016 15/10 Q1018 NOSIG
8:20 am
V
57 °F 6¼ mi+ - 260° 260° 12 kt METAR EDDG 270620Z 26012KT 9999 FEW015 14/12 Q1018 NOSIG
7:50 am
V
57 °F 6¼ mi+ - 260° 260° 10 kt METAR EDDG 270550Z 26010KT 9999 FEW015 14/12 Q1018 NOSIG
7:20 am
V
55 °F 6¼ mi+ - 260° 260° 8 kt METAR EDDG 270520Z 26008KT 9999 SCT015 13/12 Q1018 NOSIG
6:50 am
V
55 °F 6¼ mi+ - 250° 250° 8 kt METAR EDDG 270450Z 25008KT 9999 FEW017 13/12 Q1018 NOSIG
6:20 am
V
55 °F 6¼ mi+ - 260° 260° 8 kt METAR EDDG 270420Z 26008KT 9999 FEW014 SCT016 13/12 Q1018 NOSIG
5:50 am
V
55 °F 6¼ mi+ - 250° 250° 8 kt METAR EDDG 270350Z 25008KT 9999 SCT013 SCT016 13/12 Q1018 NOSIG
5:20 am
V
55 °F 6¼ mi+ - 270° 270° 9 kt METAR EDDG 270320Z 27009KT 9999 -RA FEW011 SCT014 13/12 Q1018 NOSIG
4:50 am
V
55 °F 6¼ mi+ - 260° 260° 9 kt METAR EDDG 270250Z 26009KT 9999 -RA SCT016 SCT042 13/13 Q1017 NOSIG
4:20 am
V
55 °F 6¼ mi+ - 260° 260° 7 kt METAR EDDG 270220Z 26007KT 9999 -RA SCT020 SCT035 13/12 Q1017 RESHRA NOSIG
3:50 am
I
54 °F 2¾ mi 2.400 ft 300° 300° 10 kt METAR EDDG 270150Z 30010KT 270V350 4500 SHRA FEW007 SCT016CB BKN024 12/12 Q1018 BECMG 6000 NSW
3:20 am
M
57 °F 6¼ mi+ 1.400 ft 230° 230° 14 kt METAR EDDG 270120Z 23014KT 9999 -RA FEW012 BKN014 14/13 Q1017 TEMPO RA
2:50 am
M
57 °F 6¼ mi+ 2.000 ft 230° 230° 15 kt METAR EDDG 270050Z 23015KT 210V270 9999 -RA FEW011 SCT014 BKN020 14/13 Q1017 TEMPO RA BKN014
2:20 am
M
57 °F 6¼ mi+ 1.700 ft 240° 240° 13 kt METAR EDDG 270020Z 24013KT 9999 -RA FEW012 BKN017 14/13 Q1017 RERA NOSIG
1:50 am
M
59 °F 6¼ mi+ 1.800 ft 240° 240° 13 kt METAR EDDG 262350Z 24013KT 9999 -RA FEW016 BKN018 15/12 Q1018 NOSIG
1:20 am
M
59 °F 6¼ mi+ 2.400 ft 240° 240° 11 kt METAR EDDG 262320Z 24011KT 9999 -RA SCT018 BKN024 15/13 Q1018 NOSIG
12:50 am
M
61 °F 6¼ mi+ 2.200 ft 240° 240° 14 kt METAR EDDG 262250Z 24014KT 9999 -RADZ FEW017 BKN022 16/12 Q1018 NOSIG
12:20 am
M
61 °F 6¼ mi+ 2.500 ft 250° 250° 13 kt METAR EDDG 262220Z 25013KT 9999 -RA FEW019 BKN025 16/12 Q1018 NOSIG

26 maja 2022

Czas Kod Pogoda Temp. Widoczność Sufit Wiatr METAR/SPECI
11:50 pm
M
63 °F 6¼ mi+ 2.200 ft 250° 250° 14 kt METAR EDDG 262150Z 25014KT 190V270 9999 -RA FEW018 BKN022 17/13 Q1018 NOSIG
11:20 pm
M
63 °F 6¼ mi+ 2.800 ft 250° 250° 14 kt METAR EDDG 262120Z 25014KT 9999 FEW023 BKN028 17/12 Q1018 NOSIG
10:50 pm
V
63 °F 6¼ mi+ 3.300 ft 240° 240° 10 kt METAR EDDG 262050Z 24010KT 9999 -RA FEW024 BKN033 17/12 Q1018 NOSIG
10:20 pm
V
63 °F 6¼ mi+ 4.400 ft 250° 250° 9 kt METAR EDDG 262020Z 25009KT 9999 FEW032 BKN044 17/12 Q1018 NOSIG
9:50 pm
V
63 °F 6¼ mi+ 3.600 ft 250° 250° 17 kt METAR EDDG 261950Z 25017KT 9999 SCT028 BKN036 17/12 Q1018 NOSIG
9:20 pm
V
64 °F 6¼ mi+ 3.800 ft 260° 260° 10 kt METAR EDDG 261920Z 26010KT 9999 SCT031 BKN038 18/11 Q1018 NOSIG
8:50 pm
V
64 °F 6¼ mi+ 4.800 ft 260° 260° 12 kt METAR EDDG 261850Z 26012KT 9999 SCT032 BKN048 18/11 Q1018 NOSIG
8:20 pm
V
66 °F 6¼ mi+ 3.900 ft 250° 250° 12 kt METAR EDDG 261820Z 25012KT 9999 FEW036 BKN039 19/11 Q1018 NOSIG
7:50 pm
V
66 °F 6¼ mi+ 4.100 ft 250° 250° 13 kt METAR EDDG 261750Z 25013KT 9999 FEW038 BKN041 19/10 Q1018 NOSIG
7:20 pm
V
66 °F 6¼ mi+ 4.200 ft 240° 240° 14 kt METAR EDDG 261720Z 24014KT 9999 FEW037 BKN042 19/10 Q1018 NOSIG
6:50 pm
V
66 °F 6¼ mi+ 4.000 ft 240° 240° 15 kt METAR EDDG 261650Z 24015KT 9999 FEW036 BKN040 19/10 Q1018 NOSIG
6:20 pm
V
68 °F 6¼ mi+ - 240° 240° 13 kt METAR EDDG 261620Z 24013KT 210V270 9999 SCT042 20/10 Q1018 NOSIG
5:50 pm
V
68 °F 6¼ mi+ - 250° 250° 17 kt METAR EDDG 261550Z 25017KT 9999 FEW042 20/10 Q1018 NOSIG
5:20 pm
V
68 °F 6¼ mi+ - 240° 240° 17 kt METAR EDDG 261520Z 24017KT 9999 FEW042 20/09 Q1019 NOSIG
4:50 pm
V
68 °F 6¼ mi+ - 250° 250° 17 kt METAR EDDG 261450Z 25017KT 9999 FEW040 20/10 Q1019 NOSIG
Starsze dane

Pobierz naszą aplikację

Łatwy dostęp do całej pogody lotniczej na telefonie komórkowym i tablecie.
Z wieloma funkcjami niedostępnymi na stronie internetowej, takimi jak wsparcie offline i osobista lista lotnisk.

My i osoby trzecie śledzimy twoje zachowanie w internecie na naszej stronie za pomocą plików cookie. Jeśli kontynuujesz, zakładamy, że zgadzasz się z naszą polityką plików cookie. Dowiedz się więcej